Location: Heisede
(52.2582°N, 9.8523°E)
Time: 22:06:12
(UTC+00:00)

Meteor 1-24 Rocket - Pass Details

Date: 13 January 2026
Orbit: 790 x 925 km, 81.2° (Epoch: 7 February)

Event Time Altitude Azimuth Distance (km) Brightness Sun altitude
Rises 06:37:07 0° 345° (NNW) 3,558 6.5 -7.1°
Reaches altitude 10° 06:39:36 10° 342° (NNW) 2,622 5.9 -6.7°
Maximum altitude 06:45:32 64° 263° (W) 1,025 4.0 -5.9°
Drops below altitude 10° 06:51:27 10° 183° (S) 2,617 6.6 -5.1°
Sets 06:53:56 0° 181° (S) 3,549 7.4 -4.8°
